Location: Unspecified
(0.0000°N, 0.0000°E)
Time: 04:23:21
(UTC+00:00)

Vanguard 3 - Pass Details

Date: 16 April 2021
Orbit: 507 x 3262 km, 33.4° (Epoch: 17 May)

Event Time Altitude Azimuth Distance (km) Brightness Sun altitude
Rises 17:55:12 0° 225° (SW) 7,233 12.5 1.1°
Reaches altitude 10° 18:02:49 10° 209° (SSW) 6,098 11.9 -0.8°
Maximum altitude 18:14:42 20° 169° (S) 4,761 10.9 -3.7°
Drops below altitude 10° 18:24:09 10° 128° (SE) 4,781 10.5 -6.0°
Enters shadow 18:26:47 - 118° (ESE) 5,029 10.6 -6.7°
